Simultaneous Nadir Overpasses (SNOs) Predictions

Prediction of SNOs between GOES-14 and NPP Satellite Orbit:

Table of predicted SNOs for the next 14.0 days since TLE Epoch: 3/23/2024
Index Date Time (GOES-14) GOES-14 Lat,Lon NPP Lat,Lon Distance(km) Time Diff (sec)
1 03/23/2024 08:52:25 0.15,-108.46 0.79,-111.33 326.43 80
2 03/24/2024 08:31:02 0.15,-108.46 -0.24,-106.80 189.70 80
3 03/25/2024 20:52:59 -0.15,-108.49 -0.97,-112.11 412.94 80
4 03/26/2024 20:36:56 -0.15,-108.49 0.06,-107.59 103.55 80
5 03/28/2024 08:58:44 0.15,-108.49 1.14,-112.86 498.51 80
6 03/29/2024 08:37:20 0.15,-108.49 0.10,-108.34 17.40 80
7 03/31/2024 20:40:33 -0.16,-108.50 -0.32,-109.11 70.59 80
8 04/01/2024 20:24:30 -0.16,-108.50 0.72,-104.59 445.46 80
9 04/03/2024 08:46:18 0.17,-108.48 0.47,-109.86 157.11 80
10 04/04/2024 08:24:54 0.17,-108.48 -0.52,-105.33 358.49 80
11 04/05/2024 20:46:51 -0.17,-108.48 -0.66,-110.64 245.97 80
